TimeCDT,TemperatureF,Dew PointF,Humidity,Sea Level PressureIn,VisibilityMPH,Wind Direction,Wind SpeedMPH,Gust SpeedMPH,PrecipitationIn,Events,Conditions,WindDirDegrees,DateUTC
12:54 AM,48.9,44.1,83,29.84,10.0,ESE,6.9,-,N/A,,Clear,110,2012-10-21 05:54:00
1:54 AM,48.0,43.0,83,29.83,10.0,ESE,8.1,-,N/A,,Clear,110,2012-10-21 06:54:00
2:54 AM,48.0,43.0,83,29.83,10.0,ESE,8.1,-,N/A,,Clear,120,2012-10-21 07:54:00
3:54 AM,48.0,43.0,83,29.81,10.0,ESE,8.1,-,N/A,,Clear,110,2012-10-21 08:54:00
4:54 AM,46.9,43.0,86,29.81,10.0,ESE,6.9,-,N/A,,Clear,110,2012-10-21 09:54:00
5:54 AM,46.9,43.0,86,29.82,10.0,SE,9.2,-,N/A,,Clear,130,2012-10-21 10:54:00
6:54 AM,46.0,42.1,86,29.82,10.0,ESE,6.9,-,N/A,,Partly Cloudy,120,2012-10-21 11:54:00
7:54 AM,46.0,42.1,86,29.83,10.0,ESE,6.9,-,N/A,,Partly Cloudy,110,2012-10-21 12:54:00
8:54 AM,48.9,43.0,80,29.84,9.0,ESE,8.1,-,N/A,,Partly Cloudy,120,2012-10-21 13:54:00
9:54 AM,53.1,46.0,77,29.86,10.0,SE,6.9,-,N/A,,Partly Cloudy,140,2012-10-21 14:54:00
10:54 AM,59.0,48.0,67,29.86,10.0,SE,10.4,-,N/A,,Partly Cloudy,140,2012-10-21 15:54:00
11:54 AM,64.9,52.0,63,29.83,10.0,South,13.8,-,N/A,,Partly Cloudy,170,2012-10-21 16:54:00
12:54 PM,70.0,54.0,57,29.82,10.0,SSE,8.1,-,N/A,,Partly Cloudy,150,2012-10-21 17:54:00
1:54 PM,75.0,57.0,53,29.79,10.0,SSE,9.2,-,N/A,,Scattered Clouds,150,2012-10-21 18:54:00
2:54 PM,79.0,59.0,50,29.77,10.0,SSE,11.5,19.6,N/A,,Partly Cloudy,150,2012-10-21 19:54:00
3:54 PM,81.0,57.9,45,29.77,10.0,South,15.0,23.0,N/A,,Partly Cloudy,170,2012-10-21 20:54:00
4:54 PM,80.1,59.0,48,29.76,10.0,SSE,11.5,-,N/A,,Partly Cloudy,160,2012-10-21 21:54:00
5:54 PM,77.0,60.1,56,29.77,10.0,SE,9.2,-,N/A,,Partly Cloudy,140,2012-10-21 22:54:00
6:54 PM,73.0,61.0,66,29.78,10.0,SSE,9.2,-,N/A,,Partly Cloudy,150,2012-10-21 23:54:00
7:54 PM,73.0,62.1,68,29.80,10.0,SE,8.1,-,N/A,,Overcast,140,2012-10-22 00:54:00
8:54 PM,72.0,62.1,71,29.81,10.0,SE,6.9,-,N/A,,Overcast,140,2012-10-22 01:54:00
9:54 PM,72.0,62.1,71,29.82,10.0,SE,8.1,-,N/A,,Overcast,130,2012-10-22 02:54:00
10:54 PM,71.1,62.1,73,29.82,10.0,ESE,5.8,-,N/A,,Overcast,110,2012-10-22 03:54:00
11:54 PM,71.1,62.1,73,29.81,10.0,ESE,5.8,-,N/A,,Overcast,120,2012-10-22 04:54:00